Regional Weather Roundup
Issued by NWS Kansas City/Pleasant Hill, MO

Home | Current Version | Previous Version | Text Only | Print | Product List | Glossary On
Versions: 1 2 3 4 5 6 7 8 9 10 11 12 13 14 15 16 17 18 19 20 21 22 23 24 25 26 27 28 29 30 31 32 33 34 35 36 37 38 39 40 41 42 43 44 45 46 47 48 49 50
985
ASUS43 KEAX 270110
RWREAX

WEATHER ROUNDUP FOR EASTERN KANSAS AND NORTHWEST MISSOURI
NATIONAL WEATHER SERVICE KANSAS CITY/PLEASANT HILL MO
700 PM CST SUN FEB 26 2017

KSZ040-057-103>105-MOZ028-029-037-043-270200-
...KANSAS CITY METROPOLITAN AREA...

CITY           SKY/WX    TMP DP  RH WIND       PRES   REMARKS
K.C. INTL      CLEAR     38  26  62 SE8       29.98R WCI  32
K.C. DOWNTOWN  CLEAR     46  34  62 S12       29.99R
LEES SUMMIT    CLEAR     42  35  76 VRB6      30.00R
OLATHE - IXD   CLEAR     42  34  73 SE10      29.99R
OLATHE - OJC   CLEAR     41  36  82 SE9       29.99R
LAWRENCE       PTCLDY    44  33  65 SE10      29.98R

$$

MOZ001>008-011>017-020>025-030>033-038>040-044>046-053-054-270200-
...NORTHERN AND CENTRAL MISSOURI...

CITY           SKY/WX    TMP DP  RH WIND       PRES   REMARKS
ST. JOSEPH     CLEAR     42  26  53 S3        29.97R
MOSBY          CLEAR     45  27  49 S3        30.00R
WARRENSBURG    CLOUDY    41  34  75 S8        30.03R
WHITEMAN AFB   CLOUDY    40  40  99 S9        30.02R WCI  34
CLINTON        CLOUDY    39  37  93 CALM      30.05R
SEDALIA        CLOUDY    41  36  82 S13       30.05R WCI  34
WARSAW         NOT AVBL
CHILLICOTHE      N/A     43  23  45 S6        30.01R
KIRKSVILLE     CLEAR     39  21  48 S8        30.00R WCI  33

$$

MOZ041-047>049-056>058-063>065-088>090-097-270200-
...EASTERN AND SOUTHERN MISSOURI...

CITY           SKY/WX    TMP DP  RH WIND       PRES   REMARKS
ST. LOUIS INTL CLOUDY    43  32  65 S9        30.09R
SPIRIT OF STL  CLOUDY    42  34  73 S6        30.09R
COLUMBIA       CLOUDY    40  36  86 S14       30.05R WCI  32
JEFFERSON CITY CLOUDY    41  36  82 SE7       30.07R
ROLLA          CLOUDY    37  35  92 SE7       30.05R WCI  32
OSAGE BEACH    LGT RAIN  38  37  97 E3        30.06R
SPRINGFIELD    CLOUDY    43  31  62 SE12      29.99R
BRANSON        CLOUDY    45  25  45 E8        30.02R
JOPLIN         MOCLDY    40  34  79 E5        29.98R
WEST PLAINS    CLOUDY    46  24  42 E5        30.06R

$$

IAZ060-094-KSZ022-034>040-054-083-096-NEZ052-066-093-270200-
...KANSAS...SOUTHEAST NEBRASKA AND IOWA...

CITY           SKY/WX    TMP DP  RH WIND       PRES   REMARKS
TOPEKA         CLEAR     48  25  40 W3        29.97R
MANHATTAN      CLEAR     47  22  37 CALM      29.96R
EMPORIA        CLEAR     43  26  51 SE7       29.96R
CHANUTE        CLEAR     42  32  67 E6        29.99R
WICHITA        PTCLDY    47  23  38 N6        29.95R
OMAHA          CLEAR     36  25  64 NE3       29.97R
LINCOLN        CLEAR     33  23  66 E5        29.98R WCI  29
FALLS CITY     CLEAR     41  23  48 N6        29.96R
LAMONI         MOCLDY    41  23  48 N9        29.96R
DES MOINES     PTCLDY    38  19  46 N5        29.98R WCI  34

$$





USA.gov is the U.S. government's official web portal to all federal, state and local government web resources and services.